Weather History for KBDR - August, 2013

Change the Weather History Date:

Wednesday, August 7, 2013

  Actual Average Record
Temperature  
Mean Temperature 71 °F 74 °F  
Max Temperature 79 °F 82 °F 94 °F (2001)
Min Temperature 62 °F 67 °F 55 °F (1948)
Degree Days  
Heating Degree Days 0 0  
Month to date heating degree days 0 0  
Since 1 June heating degree days 18 33  
Since 1 July heating degree days 0 1  
Cooling Degree Days 6 9  
Month to date cooling degree days 48 68  
Year to date cooling degree days 686 524  
Since 1 June cooling degree days 648 500  
Growing Degree Days 20 (Base 50)    
Moisture  
Dew Point 63 °F    
Average Humidity 74    
Maximum Humidity 90    
Minimum Humidity 58    
Precipitation  
Precipitation T in 0.13 in 1.70 in (1978)
Month to date precipitation 0.42 0.95  
Year to date precipitation 25.09 25.89  
Snow  
Snow 0.00 in 0.00 in 0.10 in (2008)
Month to date snowfall 0.0 0.0  
Since 1 July snowfall 0.0 0.0  
Snow Depth 0.00 in    
Sea Level Pressure  
Sea Level Pressure 30.14 in    
Wind  
Wind Speed 7 mph (SSE)    
Max Wind Speed 12 mph    
Max Gust Speed 17 mph    
Visibility 10 miles    
Events      
T = Trace of Precipitation, MM = Missing Value Source: NWS Daily Summary

Daily Weather History Graph

Daily Weather History Graph

Search for Another Location

Airport or City:

Trip Planner

Search our weather history database for the weather conditions in past years. The results will help you decide how hot, cold, wet, or windy it might be!

Date:

Astronomy

Aug. 07, 2013 Rise Set
Actual Time 5:54 AM EDT 8:01 PM EDT
Civil Twilight 5:23 AM EDT 8:31 PM EDT
Nautical Twilight 4:46 AM EDT 9:09 PM EDT
Astronomical Twilight 4:05 AM EDT 9:49 PM EDT
Moon 6:41 AM EDT (8/7) 8:06 PM EDT (8/7)
Length of Visible Light 15h 08m
Length of Day
14h 07m
New Moon, 1% of the Moon is Illuminated
Aug 7
New Moon
Aug 14
First Quarter
Aug 20
Full
Aug 28
Last Quarter
Sep 5
New

Hourly Weather History & Observations

Time (EDT) Temp. Dew Point Humidity Pressure Visibility Wind Dir Wind Speed Gust Speed Precip Events Conditions
12:52 AM 68.0 °F 59.0 °F 73% 30.14 in 10.0 mi South 4.6 mph - N/A   Clear
1:52 AM 68.0 °F 60.1 °F 76% 30.14 in 10.0 mi South 5.8 mph - N/A   Clear
2:52 AM 64.9 °F 59.0 °F 81% 30.15 in 10.0 mi Calm Calm - N/A   Clear
3:52 AM 64.0 °F 60.1 °F 87% 30.15 in 10.0 mi NNE 4.6 mph - N/A   Mostly Cloudy
4:52 AM 64.9 °F 61.0 °F 87% 30.14 in 10.0 mi Calm Calm - N/A   Overcast
5:52 AM 62.1 °F 59.0 °F 90% 30.16 in 10.0 mi WNW 4.6 mph - N/A   Scattered Clouds
6:52 AM 68.0 °F 63.0 °F 84% 30.17 in 10.0 mi Calm Calm - N/A   Overcast
7:52 AM 70.0 °F 63.0 °F 78% 30.17 in 10.0 mi SE 9.2 mph - N/A   Overcast
8:52 AM 72.0 °F 62.1 °F 71% 30.16 in 10.0 mi SE 11.5 mph - N/A   Mostly Cloudy
9:52 AM 73.9 °F 61.0 °F 64% 30.16 in 10.0 mi SSE 10.4 mph - N/A   Mostly Cloudy
10:52 AM 73.9 °F 61.0 °F 64% 30.16 in 10.0 mi SE 9.2 mph - N/A   Partly Cloudy
11:52 AM 75.0 °F 59.0 °F 57% 30.16 in 10.0 mi SE 9.2 mph - N/A   Overcast
12:52 PM 75.0 °F 60.1 °F 60% 30.16 in 10.0 mi SSE 8.1 mph - N/A   Overcast
1:52 PM 75.9 °F 61.0 °F 60% 30.16 in 10.0 mi SE 8.1 mph - N/A   Overcast
2:52 PM 78.1 °F 63.0 °F 60% 30.14 in 10.0 mi ESE 9.2 mph - N/A   Mostly Cloudy
3:52 PM 75.0 °F 63.0 °F 66% 30.13 in 10.0 mi ESE 10.4 mph - N/A   Overcast
4:52 PM 75.9 °F 66.0 °F 71% 30.12 in 10.0 mi SSE 8.1 mph - 0.00 in   Overcast
5:52 PM 75.0 °F 64.9 °F 71% 30.11 in 10.0 mi SE 11.5 mph - N/A   Overcast
6:52 PM 73.9 °F 66.0 °F 76% 30.11 in 10.0 mi SSE 6.9 mph - N/A   Unknown
7:52 PM 73.9 °F 64.0 °F 71% 30.10 in 10.0 mi SSE 9.2 mph - N/A   Overcast
8:52 PM 73.0 °F 64.9 °F 76% 30.11 in 10.0 mi SSE 10.4 mph - N/A   Unknown
9:09 PM 73.4 °F 66.2 °F 78% 30.10 in 10.0 mi SSE 9.2 mph - N/A   Overcast
9:52 PM 73.0 °F 66.0 °F 79% 30.11 in 10.0 mi South 8.1 mph - N/A   Overcast
10:33 PM 73.4 °F 66.2 °F 78% 30.10 in 10.0 mi SSE 6.9 mph - N/A   Overcast
10:52 PM 73.0 °F 66.9 °F 81% 30.11 in 10.0 mi South 4.6 mph - N/A   Overcast
11:01 PM 73.4 °F 66.2 °F 78% 30.11 in 10.0 mi South 4.6 mph - N/A   Overcast
11:52 PM 73.0 °F 66.9 °F 81% 30.10 in 10.0 mi South 5.8 mph - 0.00 in   Overcast